Погода в Джалалабаде

Погода в Джалалабаде : погода сейчас, прогноз погоды и архив. Всё, что Вы хотите узнать о погоде в Джалалабаде!

Поиск расширенной информации на нашем сайте:

Другие новости

Новости СМИ2

Главная страница сайта

Новости сайта

03.07.2017

Напоминаем, что на нашем специализированном сайте Метеоцентр.Азия вы можете получить высокодетализированные автоматические прогнозы погоды по пунктам России, СНГ и мира в авиационном формате (включающие направление и скорость ветра, видимость, явления погоды, количество и форму облачности, нижнюю и верхнюю границу облачности).


Погода в Джалалабаде - сегодня

Время (UTC), дата Ветер
(°,м/с) 
Видим.   Явления Облачность Т
(°С)
Тd
(°С)
f(%) Тe
(°С)
Pmin
(гПа)
dP
(гПа)
Po
(мм)
O2
(г/м3)
Тmin Tmax R s Состояние
почвы
18 21.09.17 030 (СВ) н/о    ясно 
+18.4 +9 54 +20  1010.8  -0.2  693  259    +29.4       
21 21.09.17 030 (СВ) н/о    ясно 
+17.3 +8.4 56 +19  1010.9  -0.4  693  260           
00 22.09.17 020 (С) н/о    ясно 
+15.8 +7.1 56 +17  1011.4  694  263           
03 22.09.17 040 (СВ) 20000 м    ясно 
+18.9 +7 46 +20  1011.5  751  282           
06 22.09.17 180 (Ю) 20000 м    ясно 
+26.6 +9.2 33 +28  1008.5  -0.6  693  252  +15.8         
09 22.09.17 210 (ЮЗ) 20000 м    ясно 
+28.8 +9.8 31 +31  1006.7  -1  692  250           
12 22.09.17 180 (Ю) 20000 м    ясно 
+27.4 +10.6 35 +31  1006.6  -0.5  693  252    +3.3       
15 22.09.17 240 (ЮЗ) н/о    ясно 
+20.8 +10.5 52 +24  1009.5  1.2  693  257    +30.2       
18 22.09.17 020 (С) н/о    ясно 
+17.4 +7.3 51 +18  1011.4  0.4  693  261    +30.2       
21 22.09.17 030 (СВ) н/о    ясно 
+16.8 +5.6 48 +18  1011.3  -0.3  693  261           
00 23.09.17 020 (С) н/о    8/0 верхняя 
[Ci sp]
+17 +6.4 50 +17  1011.7  0.5  694  262    +1.4       
03 23.09.17 070 (В) 20000 м    ясно 
+18.8 +7.1 46 +20  1012.2  751  282           
06 23.09.17 170 (Ю) 20000 м    ясно 
+25.4 +12.2 44 +31  1010.6  0.4  694  253  +16.8         
09 23.09.17 070 (В) н/о    ясно 
+28.5 +8.5 29 +29  1008.7  -1  694  251           
12 23.09.17 240 (ЮЗ) 20000 м    ясно 
+27.4 +7.4 28 +27  1008.5  -0.5  694  253           
15 23.09.17 170 (Ю) н/о    ясно 
+20.8 +9.9 50 +23  1012.3  1.8  695  258    +29.2       
18 23.09.17 070 (В) н/о    ясно 
+18.8 +8.2 50 +20  1012.8  0.7  695  260    +29.2       
21 23.09.17 020 (С) н/о    ясно 
+17.7 +8.4 54 +20  1013.2  695  261           
00 24.09.17 010 (С) н/о    ясно 
+17 +7.2 52 +18  1014.4  0.7  696  263           
03 24.09.17 030 (СВ) 20000 м    10/0 средняя 
[As op]
+19 +7.1 46 +21  1015.4  696  260           
06 24.09.17 260 (З) 20000 м    9/0 верхняя 
[Ci sp]
+24.2 +4.3 28 +24  1014.3  0.3  697  257  +16.8         
09 24.09.17 220 (ЮЗ) 20000 м    1/1 1000 м 
[Cu med, cong]
+27.1 +1.7 19 +27  1013.1  -0.3  696  254           
12 24.09.17 270 (З) 20000 м    ясно 
+25 +4.1 26 +25  1012.5  -1  697  256           
15 24.09.17 040 (СВ) н/о    6/0 верхняя 
[Ci sp]
+19.7 +6.1 41 +21  1015.6  1.3  697  260    +29       
18 24.09.17 020 (С) н/о    10/0 средняя 
[As op]
+17.6 +4.3 41 +18    -0.1    283    +29       
Время (UTC), дата Ветер
(°,м/с) 
Видим.   Явления Облачность Т
(°С)
Тd
(°С)
f(%) Тe
(°С)
Pmin
(гПа)
dP
(гПа)
Po
(мм)
O2
(г/м3)
Тmin Tmax R s Состояние
почвы

Для получения пояснительной информации подведите курсор к названию столбца.

ПОГОДА в Джалалабаде - архив

Всё, что Вы хотите узнать о погоде в Джалалабаде - удобно и подробно!

Выберите нужную дату (начиная с 1 января 2015* года) и нажмите кнопку "Найти".
Будут отображены архивные сводки погоды по пункту Джалалабад, начиная с указанной даты.


Отображать данные в формате CSV (для использования в таблицах Excel)


Внимание! Наш архив погоды предназначен исключительно для личного некоммерческого использования в познавательных целях. Если Вам необходимы официальные справки о состоянии погоды (для производственных, юридических, коммерческих и т.п. целей), обращайтесь в органы Росгидромета.

*Примечание: данная дата относится к архиву по метеостанциям СССР (Россия, СНГ, Балтия).
Архив по метеостанциям Зарубежной Европы и Азии (кроме Китая) хранится 10 дней, по другим регионам земного шара (Китай, Африка, Америка, Австралия, Океания) - 1 день.

Джалалабад - район местоположения метеостанции


Название, широта, долгота, высота метеостанции:
Джалалабад 40.9°ш. 72.9°д. 765 м над ур. моря [Кыргызстан]

Дополнительная информация

В oтличие oт бoльшинства пoгoдных сайтoв мы публикуем пoдрoбную метеoинфoрмацию в детальнoм прoфессиoнальнoм фoрмате.

Характеристики температуры и влажнoсти вoздуха измеряются на высoте 2 м в тени вдали oт зданий и деревьев.
Скoрoсть ветра измеряется на высoте 10 м (на урoвне рoста челoвека скoрoсть ветра ниже в 1.5-2 раза). Если метеoстанция нахoдится в гoрoде или в лесу, тo скoрoсть ветра занижена на 2-4 м/с пo сравнению с oткрытым местoм. Скoрoсть ветра над акватoриями крупных рек и oзёр, а также на вершинах хoлмoв на 2-5 м/с выше, чем в oбычных услoвиях.
Атмoсфернoе давление в разных тoчках местнoсти мoжет значительнo oтличаться oт давления на метеoстанции, в зависимoсти oт услoвий рельефа (при пoдъёме на 10 м давление пoнижается примернo на 1 мм рт.ст.).